Lebanon, Oregon, United States (97355)
Lat: 44.54N, Lon: 122.91W
Wx Zone: ORZ008
Local Info
Past Weather Observations for Today

NOTE: This archive is for the closest National Weather Service station to Lebanon. Information may differ from the station used for current weather conditions.

Click here for Long-term Archive

Time Weather Temperature Dewpoint Humidity Pressure Winds Precip Visibility
15:35
Partly Cloudy
66°F / 19°C 54°F / 12°C 64% 30.15 in
(1021 mb)
WNW 5.8 mph
(WNW 9 kph)
-
15:15
Overcast
64°F / 18°C 54°F / 12°C 68% 30.18 in
(1022 mb)
NW 5.8 mph
(NW 9 kph)
-
14:55
Mostly Cloudy
66°F / 19°C 50°F / 10°C 56% 30.15 in
(1021 mb)
NNW 5.8 mph
(NNW 9 kph)
-
14:35
Partly Cloudy
66°F / 19°C 54°F / 12°C 64% 30.18 in
(1022 mb)
W 6.9 mph
(W 11 kph)
-
14:15
Overcast
63°F / 17°C 52°F / 11°C 68% 30.18 in
(1022 mb)
W 4.6 mph
(W 7 kph)
-
13:55
Mostly Cloudy
64°F / 18°C 50°F / 10°C 60% 30.18 in
(1022 mb)
WNW 13.8 mph
(WNW 22 kph)
-
13:35
Mostly Cloudy
66°F / 19°C 52°F / 11°C 60% 30.18 in
(1022 mb)
SW 4.6 mph
(SW 7 kph)
-
13:15
Partly Cloudy
64°F / 18°C 54°F / 12°C 68% 30.18 in
(1022 mb)
WNW 3.5 mph
(WNW 6 kph)
-
12:55
Overcast
63°F / 17°C 54°F / 12°C 73% 30.18 in
(1022 mb)
NE 5.8 mph
(NE 9 kph)
-
12:35
Overcast
63°F / 17°C 55°F / 13°C 77% 30.18 in
(1022 mb)
E 6.9 mph
(E 11 kph)
-
12:15
Overcast
64°F / 18°C 52°F / 11°C 64% 30.18 in
(1022 mb)
SW 4.6 mph
(SW 7 kph)
-
11:55
Mostly Cloudy
66°F / 19°C 52°F / 11°C 60% 30.18 in
(1022 mb)
Calm -
11:35
Partly Cloudy
66°F / 19°C 54°F / 12°C 64% 30.18 in
(1022 mb)
SE 3.5 mph
(SE 6 kph)
-
11:15
Mostly Cloudy
63°F / 17°C 54°F / 12°C 73% 30.18 in
(1022 mb)
1000 E 6.9 mph
( 1000 E 11 kph)
-
10:55
Overcast
64°F / 18°C 52°F / 11°C 64% 30.21 in
(1023 mb)
Calm -
10:35
Overcast
63°F / 17°C 54°F / 12°C 73% 30.18 in
(1022 mb)
NNW 5.8 mph
(NNW 9 kph)
-
10:15
Mostly Cloudy
63°F / 17°C 54°F / 12°C 73% 30.18 in
(1022 mb)
S 5.8 mph
(S 9 kph)
-
09:55
Mostly Cloudy
61°F / 16°C 55°F / 13°C 83% 30.18 in
(1022 mb)
SSE 3.5 mph
(SSE 6 kph)
-
09:35
Overcast
61°F / 16°C 55°F / 13°C 83% 30.18 in
(1022 mb)
Calm - 10SM
08:55
Overcast
59°F / 15°C 54°F / 12°C 82% 30.18 in
(1022 mb)
Calm -
08:35
Overcast
59°F / 15°C 54°F / 12°C 82% 30.15 in
(1021 mb)
SSE 3.5 mph
(SSE 6 kph)
-
08:15
Mostly Cloudy
57°F / 14°C 54°F / 12°C 88% 30.15 in
(1021 mb)
S 3.5 mph
(S 6 kph)
-
07:55
Partly Cloudy
55°F / 13°C 54°F / 12°C 94% 30.15 in
(1021 mb)
Calm - 10SM
07:35
Partly Cloudy
55°F / 13°C 54°F / 12°C 94% 30.15 in
(1021 mb)
S 3.5 mph
(S 6 kph)
- 10SM
07:15
Mostly Cloudy
54°F / 12°C 52°F / 11°C 94% 30.15 in
(1021 mb)
Calm - 10SM
06:55
Overcast
54°F / 12°C 52°F / 11°C 94% 30.15 in
(1021 mb)
Calm - 10SM
06:35
Overcast
54°F / 12°C 50°F / 10°C 88% 30.15 in
(1021 mb)
Calm - 10SM
06:15
Overcast
54°F / 12°C 50°F / 10°C 88% 30.15 in
(1021 mb)
Calm - 10SM
05:55
Overcast
54°F / 12°C 50°F / 10°C 88% 30.15 in
(1021 mb)
Calm - 10SM
05:35
Overcast
52°F / 11°C 50°F / 10°C 94% 30.15 in
(1021 mb)
Calm - 10SM
05:15
Mostly Cloudy
52°F / 11°C 48°F / 9°C 88% 30.15 in
(1021 mb)
Calm - 10SM
04:55
Partly Cloudy
52°F / 11°C 48°F / 9°C 88% 30.12 in
(1020 mb)
SSE 4.6 mph
(SSE 7 kph)
- 10SM
04:35
Overcast
54°F / 12°C N/A 94% 30.12 in
(1020 mb)
SW 5.8 mph
(SW 9 kph)
- 10SM
04:15
Overcast
54°F / 12°C 52°F / 11°C 94% 30.12 in
(1020 mb)
SSW 3.5 mph
(SSW 6 kph)
- 10SM
03:55
Mostly Cloudy
54°F / 12°C 52°F / 11°C 94% 30.12 in
(1020 mb)
Calm - 10SM
03:35
Mostly Cloudy
54°F / 12°C 52°F / 11°C 94% 30.12 in
(1020 mb)
S 4.6 mph
(S 7 kph)
- 10SM
03:15
Overcast
54°F / 12°C 50°F / 10°C 88% 30.12 in
(1020 mb)
S 3.5 mph
(S 6 kph)
- 10SM
02:55
Overcast
54°F / 12°C 52°F / 11°C 94% 30.12 in
(1020 mb)
SW 3.5 mph
(SW 6 kph)
- 9SM
02:35
Overcast
54°F / 12°C 50°F / 10°C 88% 30.12 in
(1020 mb)
Calm - 10SM
02:15
Overcast
54°F / 12°C 50°F / 10°C 88% 30.12 in
(1020 mb)
NW 3.5 mph
(NW 6 kph)
- 10SM
01:55
Mostly Cloudy
52°F / 11°C 48°F / 9°C 88% 30.12 in
(1020 mb)
SSW 3.5 mph
(SSW 6 kph)
- 10SM
01:35
Partly Cloudy
54°F / 12°C 52°F / 11°C 94% 30.12 in
(1020 mb)
NW 5.8 mph
(NW 9 kph)
- 10SM
01:15
Partly Cloudy
54°F / 12°C 50°F / 10°C 88% 30.12 in
(1020 mb)
W 9.2 mph
(W 15 kph)
- 10SM
00:55
Partly Cloudy
54°F / 12°C 50°F / 10°C 88% 30.12 in
(1020 mb)
W 8.1 mph
(W 13 kph)
- 10SM
00:35
Partly Cloudy
54°F / 12°C 52°F / 11°C 94% 30.09 in
(1019 mb)
W 6.9 mph
(W 11 kph)
- 10SM
00:15
Mostly Cloudy
54°F / 12°C 52°F / 11°C 94% 30.09 in
(1019 mb)
Calm - 10SM
Time Weather Temperature Dewpoint Humidity Pressure Winds Precip Visibility


Weather for websites

WeatherForYou.com, LLC is not responsible for any damages or problems caused by this service. Current weather conditions are obtained from the closest station including government and personal stations which may have varying degrees of accuracy. Weather forecasts are derived from the NOAA NDFD. Like all things, this site belongs to Jesus Christ... He just trusts me to maintain it. If you have any questions or comments email webmaster@weatherforyou.com

Copyright © 2014, WeatherForYou.com LLC. All rights reserved.